Regional Weather Roundup
Issued by NWS

Home | Current Version | Previous Version | Graphics & Text | Print | Product List | Glossary On
Versions: 1 2 3 4 5 6 7 8 9 10 11 12 13 14 15 16 17 18 19 20 21 22 23 24 25 26 27 28 29 30 31 32 33 34 35 36 37 38 39 40 41 42 43 44 45 46 47 48 49 50
000
ASUS43 KFSD 252002
RWRSD

WEATHER ROUNDUP FOR SOUTH DAKOTA
NATIONAL WEATHER SERVICE SIOUX FALLS SD
300 PM CDT MON JUL 25 2016

NOTE: "FAIR" INDICATES FEW OR NO CLOUDS BELOW 12,000 FEET WITH NO
SIGNIFICANT WEATHER AND/OR OBSTRUCTIONS TO VISIBILITY.


SDZ001>005-009-010-012>017-252100-
NORTHWEST AND NORTH CENTRAL SOUTH DAKOTA

CITY           SKY/WX    TMP DP  RH WIND       PRES   REMARKS
BUFFALO          N/A     99  42  14 MISG      29.92F
FAITH            N/A     95  50  21 S18G26    29.99F
MOBRIDGE       SUNNY     99  55  23 S15G24    29.93F HX  97
$$

SDZ012>016-024>037-041>051-057-063-072>074-252100-
SOUTHWEST AND SOUTH CENTRAL SOUTH DAKOTA

CITY           SKY/WX    TMP DP  RH WIND       PRES   REMARKS
RAPID CTY ARPT SUNNY     89  55  31 S21G26    30.03F
PIERRE         SUNNY     96  47  18 S15G30    29.98F
CUSTER         SUNNY     82  53  36 S10G21    30.19F
ELLSWORTH AFB  SUNNY     91  56  30 S18G29    30.02F
PHILIP         SUNNY     96  55  25 S14       29.99F
PINE RIDGE     LGT RAIN  91  56  30 SW12G23   30.06F
WINNER         FAIR      94  42  16 S20G25    30.06F
$$

SDZ004>011-016>023-039-040-252100-
NORTHEAST SOUTH DAKOTA

CITY           SKY/WX    TMP DP  RH WIND       PRES   REMARKS
ABERDEEN       SUNNY     92  54  27 SW16G23   30.00F
WATERTOWN      SUNNY     88  62  41 S13       30.07F
BROOKINGS      SUNNY     83  61  47 S9G18     30.09F
SISSETON         N/A     88  58  36 SW13G20   30.01F
$$

SDZ017-020-022-023-036>040-048>070-252100-
SOUTHEAST SOUTH DAKOTA

CITY           SKY/WX    TMP DP  RH WIND       PRES   REMARKS
SIOUX FALLS    SUNNY     84  58  40 S7        30.10F
HURON          SUNNY     88  57  34 S14G25    30.04F
CHAMBERLAIN    SUNNY     92  54  27 S15       30.05F
MITCHELL       SUNNY     89  60  37 S10       30.06F
YANKTON        SUNNY     88  57  35 S10G21    30.07F
$$

ABBREVIATIONS USED IN REMARKS
   TC - TEMPERATURE IN CELSIUS
  WCI - WIND CHILL INDEX
   HX - HEAT INDEX
  VSB - VISIBILITY





USA.gov is the U.S. government's official web portal to all federal, state and local government web resources and services.